,,Stat5,,Stat1,,Stat2,,Stat3,,Stat4,,Wind1,,Wind1,
time,status,PA1M_AVG,status,PR1M_SUM,status,RH1M_AVG,status,SR1M_AVG,status,TA1M_AVG,status,W1dAve1m,status,W1sAve1m,
2002-03-28, 00:00:00,VALID,917.265,VALID,0,VALID,96.5033,VALID,-0.101885,VALID,22.2393,VALID,130,VALID,0.367839,
2002-03-28, 00:01:00,VALID,917.265,VALID,0,VALID,96.5046,VALID,-0.118866,VALID,22.2293,VALID,133,VALID,0.547098,
2002-03-28, 00:02:00,VALID,917.26,VALID,0,VALID,96.544,VALID,-0.0849042,VALID,22.2164,VALID,137,VALID,0.597128,
2002-03-28, 00:03:00,VALID,917.242,VALID,0,VALID,96.5733,VALID,-0.101885,VALID,22.1932,VALID,135,VALID,0.584293,
2002-03-28, 00:04:00,VALID,917.213,VALID,0,VALID,96.5873,VALID,-0.0849042,VALID,22.1841,VALID,140,VALID,0.686233,
2002-03-28, 00:05:00,VALID,917.174,VALID,0,VALID,96.6102,VALID,-0.101885,VALID,22.1685,VALID,127,VALID,0.900127,
2002-03-28, 00:06:00,VALID,917.142,VALID,0,VALID,96.6381,VALID,-0.0849042,VALID,22.1626,VALID,125,VALID,0.815487,
2002-03-28, 00:07:00,VALID,917.091,VALID,0,VALID,96.6661,VALID,-0.118866,VALID,22.13,VALID,120,VALID,0.8769,
2002-03-28, 00:08:00,VALID,917.048,VALID,0,VALID,96.7004,VALID,-0.101885,VALID,22.1003,VALID,111,VALID,0.565755,
2002-03-28, 00:09:00,VALID,917.02,VALID,0,VALID,96.764,VALID,-0.0679233,VALID,22.1006,VALID,122,VALID,0.207348,
2002-03-28, 00:10:00,VALID,916.999,VALID,0,VALID,96.7933,VALID,-0.0849042,VALID,22.0804,VALID,132,VALID,0.309122,
2002-03-28, 00:11:00,VALID,916.983,VALID,0,VALID,96.7742,VALID,-0.0339617,VALID,22.0701,VALID,122,VALID,0.28418,
2002-03-28, 00:12:00,VALID,916.98,VALID,0,VALID,96.7793,VALID,0,VALID,22.0499,VALID,123,VALID,0.161659,
2002-03-28, 00:13:00,VALID,916.964,VALID,0,VALID,96.8187,VALID,-0.0339617,VALID,22.0537,VALID,157,VALID,0.244336,
2002-03-28, 00:14:00,VALID,916.948,VALID,0,VALID,96.8174,VALID,0,VALID,22.051,VALID,178,VALID,0.482936,
2002-03-28, 00:15:00,VALID,916.907,VALID,0,VALID,96.8034,VALID,0,VALID,22.0211,VALID,199,VALID,0.477539,
2002-03-28, 00:16:00,VALID,916.881,VALID,0,VALID,96.8034,VALID,0.0169808,VALID,22.0087,VALID,203,VALID,0.462941,
2002-03-28, 00:17:00,VALID,916.851,VALID,0,VALID,96.8657,VALID,0,VALID,21.9799,VALID,202,VALID,0.355273,
2002-03-28, 00:18:00,VALID,916.808,VALID,0,VALID,96.9395,VALID,0,VALID,21.9761,VALID,210,VALID,0.335526,
2002-03-28, 00:19:00,VALID,916.779,VALID,0,VALID,96.9802,VALID,-0.0169808,VALID,21.9567,VALID,211,VALID,0.538477,
2002-03-28, 00:20:00,VALID,916.769,VALID,0,VALID,97.04,VALID,0.0169808,VALID,21.9403,VALID,233,VALID,0.301482,
2002-03-28, 00:21:00,VALID,916.757,VALID,0,VALID,97.1074,VALID,0.0169808,VALID,21.9476,VALID,209,VALID,0.159961,
2002-03-28, 00:22:00,VALID,916.756,VALID,0,VALID,97.2154,VALID,0,VALID,21.9632,VALID,192,VALID,0.0240543,
2002-03-28, 00:23:00,VALID,916.754,VALID,0,VALID,97.2612,VALID,0.0169808,VALID,21.9796,VALID,192,VALID,0,
2002-03-28, 00:24:00,VALID,916.75,VALID,0,VALID,97.2968,VALID,0.0339617,VALID,21.9858,VALID,192,VALID,0,
2002-03-28, 00:25:00,VALID,916.753,VALID,0,VALID,97.335,VALID,0,VALID,21.9955,VALID,197,VALID,0.0869141,
2002-03-28, 00:26:00,VALID,916.762,VALID,0,VALID,97.3273,VALID,-0.0169808,VALID,21.9958,VALID,242,VALID,0.210526,
2002-03-28, 00:27:00,VALID,916.761,VALID,0,VALID,97.335,VALID,0,VALID,21.9818,VALID,251,VALID,0.167773,
2002-03-28, 00:28:00,VALID,916.763,VALID,0,VALID,97.3248,VALID,0,VALID,21.9891,VALID,250,VALID,0.0448718,
2002-03-28, 00:29:00,VALID,916.774,VALID,0,VALID,97.3591,VALID,0,VALID,21.9888,VALID,232,VALID,0.232031,
2002-03-28, 00:30:00,VALID,916.773,VALID,0,VALID,97.3782,VALID,0,VALID,22.009,VALID,186,VALID,0.384046,
2002-03-28, 00:31:00,VALID,916.768,VALID,0,VALID,97.3935,VALID,0,VALID,22.0017,VALID,176,VALID,0.321289,
2002-03-28, 00:32:00,VALID,916.756,VALID,0,VALID,97.3642,VALID,0,VALID,22.0093,VALID,186,VALID,0.115385,
2002-03-28, 00:33:00,VALID,916.767,VALID,0,VALID,97.354,VALID,0,VALID,21.999,VALID,180,VALID,0.204102,
2002-03-28, 00:34:00,VALID,916.78,VALID,0,VALID,97.3566,VALID,0.0169808,VALID,21.9858,VALID,150,VALID,0.184416,
2002-03-28, 00:35:00,VALID,916.807,VALID,0,VALID,97.3591,VALID,0,VALID,21.9993,VALID,53,VALID,0.433984,
2002-03-28, 00:36:00,VALID,916.823,VALID,0,VALID,97.321,VALID,0,VALID,21.9926,VALID,31,VALID,0.946114,
2002-03-28, 00:37:00,VALID,916.849,VALID,0,VALID,97.2472,VALID,0,VALID,21.9759,VALID,21,VALID,1.0666,
2002-03-28, 00:38:00,VALID,916.843,VALID,0,VALID,97.1722,VALID,0,VALID,21.9667,VALID,22,VALID,1.05263,
2002-03-28, 00:39:00,VALID,916.831,VALID,0,VALID,97.1531,VALID,0.0169808,VALID,21.9344,VALID,24,VALID,0.970508,
2002-03-28, 00:40:00,VALID,916.801,VALID,0,VALID,97.2447,VALID,0,VALID,21.9247,VALID,21,VALID,1.03085,
2002-03-28, 00:41:00,VALID,916.747,VALID,0,VALID,97.2981,VALID,0.0169808,VALID,21.9018,VALID,22,VALID,1.1332,
2002-03-28, 00:42:00,VALID,916.707,VALID,0,VALID,97.4138,VALID,0.0169808,VALID,21.8862,VALID,32,VALID,0.980469,
2002-03-28, 00:43:00,VALID,916.685,VALID,0,VALID,97.5283,VALID,0.0169808,VALID,21.8786,VALID,28,VALID,0.831055,
2002-03-28, 00:44:00,VALID,916.672,VALID,0,VALID,97.6198,VALID,0.0169808,VALID,21.8819,VALID,29,VALID,0.643429,
2002-03-28, 00:45:00,VALID,916.646,VALID,0,VALID,97.7228,VALID,0,VALID,21.9118,VALID,9,VALID,0.528125,
2002-03-28, 00:46:00,VALID,916.641,VALID,0,VALID,97.7343,VALID,0,VALID,21.9277,VALID,16,VALID,0.224507,
2002-03-28, 00:47:00,VALID,916.629,VALID,0,VALID,97.7368,VALID,0,VALID,21.9403,VALID,16,VALID,0.100586,
2002-03-28, 00:48:00,VALID,916.592,VALID,0,VALID,97.7152,VALID,0.0339617,VALID,21.96,VALID,16,VALID,0.161458,
2002-03-28, 00:49:00,VALID,916.573,VALID,0,VALID,97.6707,VALID,0.0169808,VALID,21.9799,VALID,42,VALID,0.209375,
2002-03-28, 00:50:00,VALID,916.547,VALID,0,VALID,97.588,VALID,0.0169808,VALID,21.9829,VALID,62,VALID,0.376439,
2002-03-28, 00:51:00,VALID,916.505,VALID,0,VALID,97.4901,VALID,0.0339617,VALID,21.9699,VALID,74,VALID,0.305078,
2002-03-28, 00:52:00,VALID,916.493,VALID,0,VALID,97.3973,VALID,0,VALID,21.9732,VALID,78,VALID,0.476963,
2002-03-28, 00:53:00,VALID,916.471,VALID,0,VALID,97.3693,VALID,0.0169808,VALID,21.9503,VALID,74,VALID,0.656641,
2002-03-28, 00:54:00,VALID,916.456,VALID,0,VALID,97.4011,VALID,0,VALID,21.9473,VALID,53,VALID,0.745271,
2002-03-28, 00:55:00,VALID,916.457,VALID,0,VALID,97.4748,VALID,0.0339617,VALID,21.9602,VALID,31,VALID,0.548828,
2002-03-28, 00:56:00,VALID,916.436,VALID,0,VALID,97.4634,VALID,-0.0679233,VALID,21.9611,VALID,33,VALID,0.428686,
2002-03-28, 00:57:00,VALID,916.438,VALID,0,VALID,97.4761,VALID,-0.101885,VALID,21.9649,VALID,37,VALID,0.422852,
2002-03-28, 00:58:00,VALID,916.436,VALID,0,VALID,97.424,VALID,-0.0849042,VALID,21.9678,VALID,37,VALID,0.493627,
2002-03-28, 00:59:00,VALID,916.437,VALID,0,VALID,97.41,VALID,-0.0849042,VALID,21.9748,VALID,20,VALID,0.671484,
2002-03-28, 01:00:00,VALID,916.446,VALID,0,VALID,97.3935,VALID,-0.0849042,VALID,21.9781,VALID,37,VALID,0.42488,
2002-03-28, 01:01:00,VALID,916.436,VALID,0,VALID,97.4253,VALID,-0.101885,VALID,21.9913,VALID,17,VALID,0.384375,
2002-03-28, 01:02:00,VALID,916.408,VALID,0,VALID,97.4469,VALID,-0.0849042,VALID,22.0169,VALID,17,VALID,0.233141,
2002-03-28, 01:03:00,VALID,916.392,VALID,0,VALID,97.4138,VALID,-0.0849042,VALID,22.0268,VALID,17,VALID,0.187109,
2002-03-28, 01:04:00,VALID,916.337,VALID,0,VALID,97.3744,VALID,-0.101885,VALID,22.0494,VALID,17,VALID,0.233373,
2002-03-28, 01:05:00,VALID,916.283,VALID,0,VALID,97.2638,VALID,-0.0679233,VALID,22.0494,VALID,17,VALID,0.232812,
2002-03-28, 01:06:00,VALID,916.228,VALID,0,VALID,97.1849,VALID,-0.101885,VALID,22.036,VALID,17,VALID,0.252262,
2002-03-28, 01:07:00,VALID,916.189,VALID,0,VALID,97.1608,VALID,-0.101885,VALID,22.0362,VALID,16,VALID,0.485547,
2002-03-28, 01:08:00,VALID,916.143,VALID,0,VALID,97.0807,VALID,-0.101885,VALID,22.0365,VALID,13,VALID,0.823718,
2002-03-28, 01:09:00,VALID,916.112,VALID,0,VALID,97.0527,VALID,-0.101885,VALID,22.0169,VALID,19,VALID,0.908203,
2002-03-28, 01:10:00,VALID,916.087,VALID,0,VALID,97.1112,VALID,-0.101885,VALID,22.0045,VALID,29,VALID,0.584293,
2002-03-28, 01:11:00,VALID,916.035,VALID,0,VALID,97.1709,VALID,-0.101885,VALID,21.9945,VALID,30,VALID,0.399609,
2002-03-28, 01:12:00,VALID,915.972,VALID,0,VALID,97.2091,VALID,-0.101885,VALID,21.981,VALID,30,VALID,0.0809295,
2002-03-28, 01:13:00,VALID,915.954,VALID,0,VALID,97.2472,VALID,-0.101885,VALID,21.9843,VALID,30,VALID,0,
2002-03-28, 01:14:00,VALID,915.93,VALID,0,VALID,97.279,VALID,-0.101885,VALID,21.998,VALID,30,VALID,0.00349507,
2002-03-28, 01:15:00,VALID,915.932,VALID,0,VALID,97.2879,VALID,-0.101885,VALID,22.0142,VALID,71,VALID,0.101367,
2002-03-28, 01:16:00,VALID,915.951,VALID,0,VALID,97.246,VALID,-0.101885,VALID,22.0107,VALID,136,VALID,0.257011,
2002-03-28, 01:17:00,VALID,915.98,VALID,0,VALID,97.2078,VALID,-0.101885,VALID,22.0007,VALID,164,VALID,0.505609,
2002-03-28, 01:18:00,VALID,915.98,VALID,0,VALID,97.1913,VALID,-0.0849042,VALID,22.0112,VALID,168,VALID,0.621711,
2002-03-28, 01:19:00,VALID,916.007,VALID,0,VALID,97.1366,VALID,-0.101885,VALID,21.9845,VALID,170,VALID,0.837891,
2002-03-28, 01:20:00,VALID,916.026,VALID,0,VALID,97.1213,VALID,-0.101885,VALID,21.9843,VALID,170,VALID,1.08013,
2002-03-28, 01:21:00,VALID,916.053,VALID,0,VALID,97.0743,VALID,-0.101885,VALID,21.9913,VALID,170,VALID,1.20293,
2002-03-28, 01:22:00,VALID,916.079,VALID,0,VALID,97.0972,VALID,-0.0849042,VALID,21.9781,VALID,172,VALID,0.922492,
2002-03-28, 01:23:00,VALID,916.138,VALID,0,VALID,97.1353,VALID,-0.101885,VALID,21.9719,VALID,177,VALID,0.704102,
2002-03-28, 01:24:00,VALID,916.199,VALID,0,VALID,97.1735,VALID,-0.0849042,VALID,21.9716,VALID,194,VALID,0.627003,
2002-03-28, 01:25:00,VALID,916.268,VALID,0,VALID,97.1315,VALID,-0.0849042,VALID,21.9651,VALID,203,VALID,0.818359,
2002-03-28, 01:26:00,VALID,916.328,VALID,0,VALID,97.148,VALID,-0.0339617,VALID,21.9649,VALID,208,VALID,0.648643,
2002-03-28, 01:27:00,VALID,916.383,VALID,0,VALID,97.143,VALID,0,VALID,21.9538,VALID,193,VALID,0.886133,
2002-03-28, 01:28:00,VALID,916.417,VALID,0,VALID,97.1938,VALID,-0.0169808,VALID,21.9538,VALID,201,VALID,0.553486,
2002-03-28, 01:29:00,VALID,916.438,VALID,0,VALID,97.2231,VALID,0,VALID,21.9541,VALID,175,VALID,0.580078,
2002-03-28, 01:30:00,VALID,916.436,VALID,0,VALID,97.232,VALID,0,VALID,21.957,VALID,179,VALID,0.866571,
2002-03-28, 01:31:00,VALID,916.425,VALID,0,VALID,97.2231,VALID,0,VALID,21.9473,VALID,155,VALID,0.707031,
2002-03-28, 01:32:00,VALID,916.405,VALID,0,VALID,97.2371,VALID,0.0169808,VALID,21.9409,VALID,125,VALID,0.481771,
2002-03-28, 01:33:00,VALID,916.392,VALID,0,VALID,97.2409,VALID,0,VALID,21.925,VALID,136,VALID,0.597461,
2002-03-28, 01:34:00,VALID,916.387,VALID,0,VALID,97.2739,VALID,0,VALID,21.9188,VALID,102,VALID,0.648438,
2002-03-28, 01:35:00,VALID,916.365,VALID,0,VALID,97.354,VALID,0,VALID,21.8988,VALID,71,VALID,0.627344,
2002-03-28, 01:36:00,VALID,916.339,VALID,0,VALID,97.4087,VALID,0.0339617,VALID,21.9088,VALID,65,VALID,0.423678,
2002-03-28, 01:37:00,VALID,916.314,VALID,0,VALID,97.382,VALID,0.0169808,VALID,21.8953,VALID,95,VALID,0.287109,
2002-03-28, 01:38:00,VALID,916.26,VALID,0,VALID,97.3579,VALID,0,VALID,21.8792,VALID,122,VALID,0.130757,
2002-03-28, 01:39:00,VALID,916.203,VALID,0,VALID,97.382,VALID,0.0339617,VALID,21.8891,VALID,158,VALID,0.304883,
2002-03-28, 01:40:00,VALID,916.129,VALID,0,VALID,97.4138,VALID,0,VALID,21.8959,VALID,166,VALID,0.0921474,
2002-03-28, 01:41:00,VALID,916.047,VALID,0,VALID,97.3858,VALID,0,VALID,21.8924,VALID,202,VALID,0.20625,
2002-03-28, 01:42:00,VALID,915.974,VALID,0,VALID,97.3375,VALID,0,VALID,21.8762,VALID,228,VALID,0.227385,
2002-03-28, 01:43:00,VALID,915.902,VALID,0,VALID,97.3324,VALID,0.0509425,VALID,21.873,VALID,228,VALID,0.0445312,
2002-03-28, 01:44:00,VALID,915.837,VALID,0,VALID,97.3032,VALID,0.0679233,VALID,21.8768,VALID,231,VALID,0.171074,
2002-03-28, 01:45:00,VALID,915.797,VALID,0,VALID,97.3083,VALID,0.0169808,VALID,21.8665,VALID,329,VALID,0.457422,
2002-03-28, 01:46:00,VALID,915.769,VALID,0,VALID,97.3057,VALID,0.0509425,VALID,21.8765,VALID,3,VALID,0.622122,
2002-03-28, 01:47:00,VALID,915.756,VALID,0,VALID,97.2574,VALID,0.0339617,VALID,21.8636,VALID,29,VALID,0.920703,
2002-03-28, 01:48:00,VALID,915.756,VALID,0,VALID,97.1748,VALID,0.0169808,VALID,21.8474,VALID,44,VALID,0.943109,
2002-03-28, 01:49:00,VALID,915.727,VALID,0,VALID,97.0908,VALID,0.0169808,VALID,21.8113,VALID,48,VALID,1.23906,
2002-03-28, 01:50:00,VALID,915.681,VALID,0,VALID,97.1213,VALID,0.0509425,VALID,21.7925,VALID,52,VALID,1.11637,
2002-03-28, 01:51:00,VALID,915.622,VALID,0,VALID,97.1595,VALID,0.0679233,VALID,21.7696,VALID,58,VALID,0.840234,
2002-03-28, 01:52:00,VALID,915.564,VALID,0,VALID,97.232,VALID,0.0679233,VALID,21.7467,VALID,66,VALID,0.764824,
2002-03-28, 01:53:00,VALID,915.529,VALID,0,VALID,97.246,VALID,0.0509425,VALID,21.7273,VALID,64,VALID,0.796875,
2002-03-28, 01:54:00,VALID,915.518,VALID,0,VALID,97.3591,VALID,0.0339617,VALID,21.7216,VALID,49,VALID,0.836143,
2002-03-28, 01:55:00,VALID,915.525,VALID,0,VALID,97.4837,VALID,0.0339617,VALID,21.7152,VALID,37,VALID,0.880078,
2002-03-28, 01:56:00,VALID,915.57,VALID,0,VALID,97.5079,VALID,0.0509425,VALID,21.7052,VALID,43,VALID,1.10317,
2002-03-28, 01:57:00,VALID,915.614,VALID,0,VALID,97.5041,VALID,0.0339617,VALID,21.6759,VALID,34,VALID,1.29824,
2002-03-28, 01:58:00,VALID,915.648,VALID,0,VALID,97.5677,VALID,0.0679233,VALID,21.6791,VALID,31,VALID,0.986225,
2002-03-28, 01:59:00,VALID,915.654,VALID,0,VALID,97.5651,VALID,0,VALID,21.6632,VALID,12,VALID,0.956055,
2002-03-28, 02:00:00,VALID,915.598,VALID,0,VALID,97.6198,VALID,0,VALID,21.6567,VALID,9,VALID,0.883013,
2002-03-28, 02:01:00,VALID,915.565,VALID,0,VALID,97.6376,VALID,0.0509425,VALID,21.6535,VALID,6,VALID,0.639648,
2002-03-28, 02:02:00,VALID,915.547,VALID,0,VALID,97.6262,VALID,0.0849042,VALID,21.6435,VALID,329,VALID,0.797697,
2002-03-28, 02:03:00,VALID,915.572,VALID,0,VALID,97.6529,VALID,0.0169808,VALID,21.6242,VALID,309,VALID,0.460352,
2002-03-28, 02:04:00,VALID,915.626,VALID,0,VALID,97.719,VALID,0.0339617,VALID,21.6206,VALID,19,VALID,0.444511,
2002-03-28, 02:05:00,VALID,915.73,VALID,0,VALID,97.8169,VALID,0.0339617,VALID,21.6465,VALID,29,VALID,0.489844,
2002-03-28, 02:06:00,VALID,915.825,VALID,0,VALID,97.8779,VALID,0.0509425,VALID,21.6794,VALID,17,VALID,0.581209,
2002-03-28, 02:07:00,VALID,915.883,VALID,0,VALID,97.9021,VALID,0.0509425,VALID,21.7084,VALID,14,VALID,0.417188,
2002-03-28, 02:08:00,VALID,915.934,VALID,0,VALID,97.9314,VALID,0,VALID,21.7308,VALID,14,VALID,0.103966,
2002-03-28, 02:09:00,VALID,915.957,VALID,0,VALID,97.8843,VALID,0.0169808,VALID,21.7305,VALID,14,VALID,0.0595703,
2002-03-28, 02:10:00,VALID,915.965,VALID,0,VALID,97.8462,VALID,0.0169808,VALID,21.737,VALID,14,VALID,0.179688,
2002-03-28, 02:11:00,VALID,915.979,VALID,0,VALID,97.8894,VALID,-0.0509425,VALID,21.761,VALID,14,VALID,0.313477,
2002-03-28, 02:12:00,VALID,915.992,VALID,0,VALID,97.8818,VALID,-0.0509425,VALID,21.7648,VALID,13,VALID,0.466146,
2002-03-28, 02:13:00,VALID,915.989,VALID,0,VALID,97.8334,VALID,-0.0169808,VALID,21.768,VALID,2,VALID,0.319336,
2002-03-28, 02:14:00,VALID,915.982,VALID,0,VALID,97.8195,VALID,-0.0339617,VALID,21.7683,VALID,360,VALID,0.298314,
2002-03-28, 02:15:00,VALID,915.951,VALID,0,VALID,97.8055,VALID,-0.0509425,VALID,21.7812,VALID,343,VALID,0.180469,
2002-03-28, 02:16:00,VALID,915.906,VALID,0,VALID,97.7737,VALID,-0.0339617,VALID,21.7812,VALID,272,VALID,0.220954,
2002-03-28, 02:17:00,VALID,915.855,VALID,0,VALID,97.7546,VALID,-0.0679233,VALID,21.7577,VALID,235,VALID,0.3125,
2002-03-28, 02:18:00,VALID,915.806,VALID,0,VALID,97.7495,VALID,-0.0509425,VALID,21.7788,VALID,235,VALID,0.459704,
2002-03-28, 02:19:00,VALID,915.786,VALID,0,VALID,97.7495,VALID,-0.0679233,VALID,21.7621,VALID,233,VALID,0.611719,
2002-03-28, 02:20:00,VALID,915.791,VALID,0,VALID,97.7597,VALID,-0.0679233,VALID,21.7459,VALID,233,VALID,0.60016,
2002-03-28, 02:21:00,VALID,915.825,VALID,0,VALID,97.78,VALID,-0.0849042,VALID,21.7362,VALID,234,VALID,0.453125,
2002-03-28, 02:22:00,VALID,915.855,VALID,0,VALID,97.8195,VALID,-0.101885,VALID,21.7262,VALID,233,VALID,0.515214,
2002-03-28, 02:23:00,VALID,915.873,VALID,0,VALID,97.883,VALID,-0.0849042,VALID,21.7359,VALID,225,VALID,0.400781,
2002-03-28, 02:24:00,VALID,915.871,VALID,0,VALID,97.8919,VALID,-0.0679233,VALID,21.7295,VALID,223,VALID,0.289263,
2002-03-28, 02:25:00,VALID,915.844,VALID,0,VALID,97.9123,VALID,-0.0679233,VALID,21.7225,VALID,215,VALID,0.463867,
2002-03-28, 02:26:00,VALID,915.789,VALID,0,VALID,97.9148,VALID,0.0169808,VALID,21.7184,VALID,197,VALID,0.76213,
2002-03-28, 02:27:00,VALID,915.755,VALID,0,VALID,97.9441,VALID,0.0849042,VALID,21.7146,VALID,228,VALID,0.442773,
2002-03-28, 02:28:00,VALID,915.748,VALID,0,VALID,97.9631,VALID,0.0849042,VALID,21.7211,VALID,312,VALID,0.225561,
2002-03-28, 02:29:00,VALID,915.732,VALID,0,VALID,97.9911,VALID,0.0509425,VALID,21.734,VALID,37,VALID,0.0289063,
2002-03-28, 02:30:00,VALID,915.761,VALID,0,VALID,98.0293,VALID,0.0509425,VALID,21.7338,VALID,8,VALID,0.150905,
2002-03-28, 02:31:00,VALID,915.771,VALID,0,VALID,97.9987,VALID,0.0509425,VALID,21.7475,VALID,262,VALID,0.376367,
2002-03-28, 02:32:00,VALID,915.787,VALID,0,VALID,97.9911,VALID,0.0339617,VALID,21.7373,VALID,263,VALID,0.365986,
2002-03-28, 02:33:00,VALID,915.806,VALID,0,VALID,97.9962,VALID,0.0339617,VALID,21.7373,VALID,304,VALID,0.533398,
2002-03-28, 02:34:00,VALID,915.82,VALID,0,VALID,97.9542,VALID,0.0339617,VALID,21.7243,VALID,295,VALID,0.373766,
2002-03-28, 02:35:00,VALID,915.827,VALID,0,VALID,97.9886,VALID,0.0339617,VALID,21.7278,VALID,354,VALID,0.391211,
2002-03-28, 02:36:00,VALID,915.839,VALID,0,VALID,98.0229,VALID,0.0339617,VALID,21.7378,VALID,1,VALID,0.544471,
2002-03-28, 02:37:00,VALID,915.823,VALID,0,VALID,98.0407,VALID,0.0679233,VALID,21.7537,VALID,7,VALID,0.526758,
2002-03-28, 02:38:00,VALID,915.82,VALID,0,VALID,98.0598,VALID,0.0509425,VALID,21.7663,VALID,6,VALID,0.563322,
2002-03-28, 02:39:00,VALID,915.804,VALID,0,VALID,98.0585,VALID,0,VALID,21.7693,VALID,6,VALID,0.646094,
2002-03-28, 02:40:00,VALID,915.792,VALID,0,VALID,98.0738,VALID,0.0169808,VALID,21.7793,VALID,15,VALID,0.708133,
2002-03-28, 02:41:00,VALID,915.792,VALID,0,VALID,98.075,VALID,-0.0509425,VALID,21.7836,VALID,25,VALID,0.692969,
2002-03-28, 02:42:00,VALID,915.781,VALID,0,VALID,98.0255,VALID,-0.101885,VALID,21.7976,VALID,31,VALID,0.957442,
2002-03-28, 02:43:00,VALID,915.762,VALID,0,VALID,97.9886,VALID,-0.101885,VALID,21.7882,VALID,33,VALID,0.976953,
2002-03-28, 02:44:00,VALID,915.754,VALID,0,VALID,97.9873,VALID,-0.0849042,VALID,21.7553,VALID,47,VALID,0.563502,
2002-03-28, 02:45:00,VALID,915.737,VALID,0,VALID,98.0242,VALID,-0.101885,VALID,21.7685,VALID,49,VALID,0.453516,
2002-03-28, 02:46:00,VALID,915.734,VALID,0,VALID,98.0318,VALID,-0.0849042,VALID,21.778,VALID,58,VALID,0.773643,
2002-03-28, 02:47:00,VALID,915.733,VALID,0,VALID,97.9606,VALID,-0.0849042,VALID,21.7521,VALID,36,VALID,0.873438,
2002-03-28, 02:48:00,VALID,915.73,VALID,0,VALID,97.9492,VALID,-0.0679233,VALID,21.7359,VALID,42,VALID,0.833534,
2002-03-28, 02:49:00,VALID,915.741,VALID,0,VALID,97.9835,VALID,-0.0679233,VALID,21.7424,VALID,7,VALID,1.05449,
2002-03-28, 02:50:00,VALID,915.752,VALID,0,VALID,97.9479,VALID,-0.101885,VALID,21.7198,VALID,19,VALID,0.965872,
2002-03-28, 02:51:00,VALID,915.79,VALID,0,VALID,97.9619,VALID,-0.0849042,VALID,21.7198,VALID,14,VALID,0.814844,
2002-03-28, 02:52:00,VALID,915.827,VALID,0,VALID,97.9619,VALID,-0.0849042,VALID,21.6969,VALID,15,VALID,0.768029,
2002-03-28, 02:53:00,VALID,915.874,VALID,0,VALID,97.9835,VALID,-0.0849042,VALID,21.6805,VALID,28,VALID,0.883789,
2002-03-28, 02:54:00,VALID,915.918,VALID,0,VALID,97.9682,VALID,-0.101885,VALID,21.6646,VALID,48,VALID,0.706209,
2002-03-28, 02:55:00,VALID,915.966,VALID,0,VALID,98.0611,VALID,-0.0679233,VALID,21.6807,VALID,38,VALID,0.542188,
2002-03-28, 02:56:00,VALID,916.034,VALID,0,VALID,98.0509,VALID,-0.0339617,VALID,21.6664,VALID,57,VALID,0.535857,
2002-03-28, 02:57:00,VALID,916.105,VALID,0,VALID,98.0051,VALID,0,VALID,21.66,VALID,84,VALID,0.614062,
2002-03-28, 02:58:00,VALID,916.14,VALID,0,VALID,98.0242,VALID,0,VALID,21.6274,VALID,83,VALID,0.589433,
2002-03-28, 02:59:00,VALID,916.191,VALID,0,VALID,98.1094,VALID,0.0169808,VALID,21.6538,VALID,66,VALID,0.402539,
2002-03-28, 03:00:00,VALID,916.218,VALID,0,VALID,98.1691,VALID,0.0339617,VALID,21.6629,VALID,70,VALID,0.376002,
2002-03-28, 03:01:00,VALID,916.246,VALID,0,VALID,98.1539,VALID,0,VALID,21.6629,VALID,96,VALID,0.336328,
2002-03-28, 03:02:00,VALID,916.24,VALID,0,VALID,98.1577,VALID,0.0169808,VALID,21.6629,VALID,87,VALID,0.522615,
2002-03-28, 03:03:00,VALID,916.234,VALID,0,VALID,98.1259,VALID,0.0169808,VALID,21.6632,VALID,124,VALID,0.469727,
2002-03-28, 03:04:00,VALID,916.222,VALID,0,VALID,98.1717,VALID,0.0339617,VALID,21.66,VALID,143,VALID,0.494391,
2002-03-28, 03:05:00,VALID,916.213,VALID,0,VALID,98.2111,VALID,0.0339617,VALID,21.6726,VALID,65,VALID,0.203711,
2002-03-28, 03:06:00,VALID,916.23,VALID,0,VALID,98.2353,VALID,0.0509425,VALID,21.6888,VALID,47,VALID,0.55222,
2002-03-28, 03:07:00,VALID,916.244,VALID,0,VALID,98.2162,VALID,0.0339617,VALID,21.6791,VALID,33,VALID,0.353906,
2002-03-28, 03:08:00,VALID,916.218,VALID,0,VALID,98.2225,VALID,0.0339617,VALID,21.6888,VALID,5,VALID,0.260216,
2002-03-28, 03:09:00,VALID,916.219,VALID,0,VALID,98.2035,VALID,0.0339617,VALID,21.6923,VALID,6,VALID,1.29805,
2002-03-28, 03:10:00,VALID,916.232,VALID,0,VALID,98.178,VALID,0,VALID,21.6826,VALID,337,VALID,0.719367,
2002-03-28, 03:11:00,VALID,916.143,VALID,0,VALID,97.1976,VALID,0,VALID,21.5221,VALID,33,VALID,1.74863,
2002-03-28, 03:12:00,VALID,916.046,VALID,0,VALID,95.9566,VALID,-0.0679233,VALID,21.3481,VALID,35,VALID,3.34635,
2002-03-28, 03:13:00,VALID,915.979,VALID,0,VALID,95.2521,VALID,-0.101885,VALID,21.4287,VALID,21,VALID,2.67891,
2002-03-28, 03:14:00,VALID,916.038,VALID,0,VALID,94.3938,VALID,-0.0679233,VALID,21.455,VALID,339,VALID,2.29297,
2002-03-28, 03:15:00,VALID,916.055,VALID,0,VALID,93.9093,VALID,-0.0509425,VALID,21.4777,VALID,15,VALID,2.64414,
2002-03-28, 03:16:00,VALID,916.034,VALID,0,VALID,92.288,VALID,-0.0849042,VALID,21.4545,VALID,3,VALID,2.53486,
2002-03-28, 03:17:00,VALID,916.045,VALID,0,VALID,89.7371,VALID,-0.101885,VALID,21.4483,VALID,3,VALID,2.05332,
2002-03-28, 03:18:00,VALID,916.052,VALID,0,VALID,88.9309,VALID,-0.0849042,VALID,21.4645,VALID,18,VALID,2.81949,
2002-03-28, 03:19:00,VALID,916.018,VALID,0,VALID,88.2163,VALID,-0.0849042,VALID,21.458,VALID,29,VALID,3.03594,
2002-03-28, 03:20:00,VALID,916.051,VALID,0,VALID,87.7789,VALID,-0.0509425,VALID,21.4287,VALID,346,VALID,2.36318,
2002-03-28, 03:21:00,VALID,916.073,VALID,0,VALID,86.7107,VALID,-0.101885,VALID,21.3678,VALID,3,VALID,2.68281,
2002-03-28, 03:22:00,VALID,916.07,VALID,0,VALID,86.0597,VALID,-0.0679233,VALID,21.2867,VALID,351,VALID,1.90975,
2002-03-28, 03:23:00,VALID,916.156,VALID,0,VALID,87.1431,VALID,0.0339617,VALID,21.2046,VALID,18,VALID,2.06855,
2002-03-28, 03:24:00,VALID,916.235,VALID,0,VALID,86.7285,VALID,0.0339617,VALID,21.1109,VALID,23,VALID,2.15925,
2002-03-28, 03:25:00,VALID,916.326,VALID,0,VALID,86.637,VALID,0.0339617,VALID,20.9911,VALID,10,VALID,2.10176,
2002-03-28, 03:26:00,VALID,916.332,VALID,0.2,VALID,87.1431,VALID,0,VALID,20.8823,VALID,22,VALID,3.57586,
2002-03-28, 03:27:00,VALID,916.342,VALID,0,VALID,88.6054,VALID,-0.0169808,VALID,20.7573,VALID,12,VALID,2.02832,
2002-03-28, 03:28:00,VALID,916.397,VALID,0.4,VALID,89.9228,VALID,-0.0339617,VALID,20.599,VALID,1,VALID,1.23257,
2002-03-28, 03:29:00,VALID,916.393,VALID,0.4,VALID,90.4251,VALID,-0.0509425,VALID,20.4251,VALID,48,VALID,1.525,
2002-03-28, 03:30:00,VALID,916.372,VALID,0.4,VALID,92.0158,VALID,-0.0169808,VALID,20.2894,VALID,47,VALID,0.429276,
2002-03-28, 03:31:00,VALID,916.336,VALID,0.2,VALID,92.8259,VALID,-0.0339617,VALID,20.1497,VALID,82,VALID,0.928711,
2002-03-28, 03:32:00,VALID,916.332,VALID,0.4,VALID,93.145,VALID,-0.0169808,VALID,20.0148,VALID,99,VALID,0.641226,